CW5456 Hansville WA US current weather conditions

sailwx.info

Last reported at 2014-May-31 21:31 UTC.
Time now 2014-Oct-25 03:00 UTC

Location: N 47°55' W 122°35'.
View on Google Maps.

See reports from other nearby stations

  
Tides and Currents Weather Stations Pressure Air Temp Water Temp Dewpoint Dewpoint Depression Visibility Wind Speed Wind Dir Waves Ship Positions
date/time (UTC)wind fromknots sea level pressurealtimeterstation pressurevisibilityair tempwater tempwave heightnotes
2014-Oct-25 01:45 339 11.7
2014-Oct-25 01:40 284 11.7
2014-Oct-25 01:35 302 11.7
2014-Oct-25 01:30 287 11.7
2014-Oct-25 01:20 329 11.7
2014-Oct-25 01:10 017 2 gusting 7 11.7
2014-Oct-25 00:40 330 1 gusting 7 11.7
2014-Oct-25 00:35 325 3 gusting 7 11.7
2014-Oct-25 00:25 333 0 gusting 6 11.7
2014-Oct-25 00:10 318 0 gusting 10 11.7
2014-Oct-25 00:00 360 7 gusting 10 12.2
2014-Oct-24 23:50 339 9 gusting 9 12.2
2014-Oct-24 23:45 315 2 gusting 9 12.2
2014-Oct-24 23:35 318 7 gusting 9 12.2
2014-Oct-24 23:30 320 12.2
2014-Oct-24 23:20 313 5 gusting 11 12.2
2014-Oct-24 23:05 337 8 gusting 10 12.2
2014-Oct-24 22:50 360 6 gusting 11 12.2
2014-Oct-24 22:40 325 6 gusting 10 12.2
2014-Oct-24 22:35 336 7 gusting 8 12.2
2014-Oct-24 22:15 331 6 gusting 8 12.2
2014-Oct-24 21:50 338 5 gusting 6 12.2
2014-Oct-24 21:30 355 1 gusting 3 12.8
2014-Oct-24 21:25 355 0 gusting 3 12.8
2014-Oct-24 21:00 074 12.8
2014-Oct-24 20:55 074 12.8
2014-Oct-24 20:30 074 0 gusting 2 12.2
2014-Oct-24 20:15 077 12.8
2014-Oct-24 20:05 088 12.8
2014-Oct-24 19:50 088 12.8
2014-Oct-24 19:45 111 12.8
2014-Oct-24 19:40 168 12.8
2014-Oct-24 19:20 067 2 gusting 6 12.2
2014-Oct-24 18:45 315 1 gusting 2 12.2
2014-Oct-24 18:40 277 1 gusting 2 12.2
2014-Oct-24 18:25 199 1 gusting 2 12.2
2014-Oct-24 18:00 198 11.7
2014-Oct-24 17:50 198 11.7
2014-Oct-24 17:40 198 11.7
2014-Oct-24 17:35 198 11.1
2014-Oct-24 17:30 198 11.1
2014-Oct-24 17:10 198 11.1
2014-Oct-24 17:00 198 0 gusting 3 11.1
2014-Oct-24 16:50 196 10.6
2014-Oct-24 16:45 196 10.6
2014-Oct-24 16:40 196 10.6
2014-Oct-24 16:30 195 10.0
2014-Oct-24 16:25 196 10.0
2014-Oct-24 16:20 196 10.0
2014-Oct-24 16:10 195 9.4
2014-Oct-24 15:50 196 8.9
2014-Oct-24 15:45 196 8.9
2014-Oct-24 15:40 196 8.9
2014-Oct-24 15:30 196 1 gusting 2 8.9
2014-Oct-24 15:25 196 0 gusting 1 8.9
2014-Oct-24 15:20 196 0 gusting 2 8.9
2014-Oct-24 15:15 196 0 gusting 2 8.9
2014-Oct-24 14:50 175 8.9
2014-Oct-24 14:45 175 8.9
2014-Oct-24 14:15 172 9.4
2014-Oct-24 14:10 172 9.4
2014-Oct-24 14:05 173 9.4
2014-Oct-24 13:55 173 9.4
2014-Oct-24 13:45 172 9.4
2014-Oct-24 13:35 173 9.4
2014-Oct-24 13:25 173 9.4
2014-Oct-24 13:15 172 9.4
2014-Oct-24 13:05 173 9.4
2014-Oct-24 12:55 123 1 gusting 2 9.4
2014-Oct-24 12:35 191 2 gusting 3 10.0
2014-Oct-24 12:30 114 10.0
2014-Oct-24 12:20 215 10.0
2014-Oct-24 12:15 148 0 gusting 3 10.0
2014-Oct-24 12:10 160 10.0
2014-Oct-24 11:50 165 6 gusting 8 10.0
2014-Oct-24 11:45 163 0 gusting 8 10.0
2014-Oct-24 11:30 198 2 gusting 12 10.0
2014-Oct-24 11:25 169 2 gusting 12 10.0
2014-Oct-24 11:15 186 3 gusting 11 10.0
2014-Oct-24 11:10 307 2 gusting 11 10.0
2014-Oct-24 11:05 165 7 gusting 10 10.0
2014-Oct-24 11:00 150 5 gusting 10 10.0
2014-Oct-24 10:50 232 5 gusting 11 10.0
2014-Oct-24 10:35 162 5 gusting 6 10.0
2014-Oct-24 10:30 171 2 gusting 11 10.0
2014-Oct-24 10:20 184 3 gusting 8 10.0
2014-Oct-24 10:15 202 6 gusting 8 10.0
2014-Oct-24 10:10 182 1 gusting 8 10.0
2014-Oct-24 10:05 128 0 gusting 5 10.0
2014-Oct-24 09:50 142 10.0
2014-Oct-24 09:45 183 2 gusting 6 10.0
2014-Oct-24 09:30 169 2 gusting 6 10.0
2014-Oct-24 09:20 163 0 gusting 7 9.4
2014-Oct-24 09:10 250 2 gusting 7 9.4
2014-Oct-24 09:00 165 9.4
2014-Oct-24 08:55 130 9.4
2014-Oct-24 08:50 245 9.4
2014-Oct-24 08:40 188 9.4
2014-Oct-24 08:25 150 1 gusting 6 9.4
2014-Oct-24 08:20 248 0 gusting 5 9.4
2014-Oct-24 08:05 121 9.4
2014-Oct-24 07:45 121 9.4
2014-Oct-24 07:25 121 10.0
2014-Oct-24 07:05 155 0 gusting 1 10.0
2014-Oct-24 07:00 155 10.0
2014-Oct-24 06:55 155 10.0
2014-Oct-24 06:45 155 10.0
2014-Oct-24 06:40 155 10.0
2014-Oct-24 06:30 149 10.0
2014-Oct-24 06:20 171 10.0
2014-Oct-24 06:10 171 0 gusting 3 10.0
2014-Oct-24 06:00 188 10.0
2014-Oct-24 05:55 165 10.0
2014-Oct-24 05:50 139 10.0
2014-Oct-24 05:40 136 10.0
2014-Oct-24 05:30 136 9.4
2014-Oct-24 05:20 142 9.4
2014-Oct-24 05:10 146 9.4
2014-Oct-24 05:05 148 9.4
2014-Oct-24 04:50 128 9.4
2014-Oct-24 04:45 128 10.0
2014-Oct-24 04:35 144 0 gusting 3 10.0
2014-Oct-24 04:10 101 10.6
2014-Oct-24 04:00 101 10.6
2014-Oct-24 03:40 133 10.6
2014-Oct-24 03:25 134 10.6
2014-Oct-24 03:15 151 1 gusting 3 10.6
2014-Oct-24 03:05 210 3 gusting 6 10.6
2014-Oct-24 02:45 172 2 gusting 5 10.6
2014-Oct-24 02:40 221 10.6
2014-Oct-24 02:15 193 10.6
2014-Oct-24 02:10 213 2 gusting 7 10.6
2014-Oct-24 01:55 222 10.6
2014-Oct-24 01:30 169 11.1
2014-Oct-24 01:25 216 1 gusting 3 11.1
2014-Oct-24 01:15 236 2 gusting 8 11.7
2014-Oct-24 01:10 253 3 gusting 8 11.7
2014-Oct-24 01:00 294 3 gusting 10 11.7
2014-Oct-24 00:45 211 5 gusting 13 12.2
2014-Oct-24 00:30 213 1 gusting 7 12.2
2014-Oct-24 00:15 208 11 gusting 11 12.2
2014-Oct-24 00:10 261 12.8
2014-Oct-23 23:55 172 1 gusting 6 12.8
2014-Oct-23 23:50 128 12.8
2014-Oct-23 23:45 325 2 gusting 10 12.8
2014-Oct-23 23:40 025 1 gusting 13 12.8
2014-Oct-23 23:35 251 6 gusting 15 12.8
2014-Oct-23 23:25 202 11 gusting 17 12.8
2014-Oct-23 23:15 184 3 gusting 19 12.8
2014-Oct-23 23:05 176 9 gusting 18 13.3
2014-Oct-23 23:00 161 9 gusting 18 13.3
2014-Oct-23 22:55 188 11 gusting 11 13.3
2014-Oct-23 22:50 167 5 gusting 11 13.3
2014-Oct-23 22:45 188 10 gusting 17 13.3
2014-Oct-23 22:40 204 5 gusting 17 13.3
2014-Oct-23 22:35 146 1 gusting 13 13.9
2014-Oct-23 22:30 236 6 gusting 13 13.9
2014-Oct-23 22:15 175 2 gusting 13 13.9
2014-Oct-23 22:10 194 10 gusting 13 13.9
2014-Oct-23 22:00 170 7 gusting 15 13.9
2014-Oct-23 21:55 160 7 gusting 11 13.9
2014-Oct-23 21:50 215 7 gusting 14 14.4
2014-Oct-23 21:40 206 0 gusting 13 14.4
2014-Oct-23 21:20 186 6 gusting 14 15.6
2014-Oct-23 21:15 194 2 gusting 11 15.6
2014-Oct-23 21:10 218 5 gusting 11 15.6
2014-Oct-23 21:05 213 5 gusting 10 15.6
2014-Oct-23 21:00 199 0 gusting 10 15.6
2014-Oct-23 20:40 169 1 gusting 12 15.6
2014-Oct-23 20:30 209 5 gusting 13 15.0
2014-Oct-23 20:15 181 9 gusting 13 14.4
2014-Oct-23 20:10 086 1 gusting 11 14.4
2014-Oct-23 20:05 101 6 gusting 16 14.4
2014-Oct-23 19:55 200 11 gusting 16 13.9
2014-Oct-23 19:30 197 16 gusting 19 13.9
2014-Oct-23 19:25 180 13 gusting 18 13.3
2014-Oct-23 19:15 132 12 gusting 16 13.3
2014-Oct-23 19:10 173 16 gusting 16 13.3
2014-Oct-23 19:05 234 9 gusting 16 13.3
2014-Oct-23 18:25 156 3 gusting 18 12.8
2014-Oct-23 18:20 126 3 gusting 16 12.8
2014-Oct-23 18:15 179 8 gusting 16 12.8
2014-Oct-23 17:55 178 7 gusting 17 11.7
2014-Oct-23 17:40 071 2 gusting 18 11.7
2014-Oct-23 17:35 116 7 gusting 16 12.2
2014-Oct-23 17:25 184 11 gusting 19 11.7
2014-Oct-23 17:10 154 1 gusting 17 11.1
2014-Oct-23 17:00 186 17 gusting 18 11.1
2014-Oct-23 16:45 192 5 gusting 13 11.1
2014-Oct-23 16:40 138 6 gusting 13 11.1
2014-Oct-23 16:30 094 2 gusting 11 11.1
2014-Oct-23 16:25 166 10 gusting 14 11.1
2014-Oct-23 16:10 155 0 gusting 13 11.1
2014-Oct-23 16:05 153 6 gusting 10 11.1
2014-Oct-23 15:50 154 5 gusting 11 11.1
2014-Oct-23 15:35 172 10 gusting 16 11.1
2014-Oct-23 15:25 192 5 gusting 10 11.1
2014-Oct-23 15:20 074 2 gusting 9 11.1
2014-Oct-23 15:15 240 2 gusting 9 11.1
2014-Oct-23 14:55 191 9 gusting 13 11.1
2014-Oct-23 14:45 234 1 gusting 10 11.1
2014-Oct-23 14:40 096 1 gusting 9 11.1
2014-Oct-23 14:30 149 11.1
2014-Oct-23 14:15 227 2 gusting 15 11.7
2014-Oct-23 14:10 126 1 gusting 15 11.7
2014-Oct-23 13:35 162 2 gusting 8 11.7
2014-Oct-23 13:30 186 2 gusting 8 11.7
2014-Oct-23 13:25 191 8 gusting 14 11.7
2014-Oct-23 13:15 118 3 gusting 12 11.7
2014-Oct-23 13:05 182 8 gusting 12 11.7
2014-Oct-23 13:00 217 6 gusting 13 11.7
2014-Oct-23 12:35 165 3 gusting 6 11.7
2014-Oct-23 12:30 177 0 gusting 6 11.7
2014-Oct-23 12:25 192 0 gusting 7 11.7
2014-Oct-23 12:15 162 6 gusting 8 11.7
2014-Oct-23 11:55 211 3 gusting 9 11.7
2014-Oct-23 11:40 126 0 gusting 11 11.7
2014-Oct-23 11:30 160 1 gusting 8 11.7
2014-Oct-23 11:20 151 8 gusting 10 11.7
2014-Oct-23 11:10 185 7 gusting 10 11.7
2014-Oct-23 11:00 234 11.7
2014-Oct-23 10:55 167 11.7
2014-Oct-23 10:50 228 6 gusting 10 11.7
2014-Oct-23 10:35 188 0 gusting 5 11.1
2014-Oct-23 10:30 140 11.1
2014-Oct-23 10:25 178 1 gusting 6 11.7
2014-Oct-23 10:15 170 5 gusting 10 11.7
2014-Oct-23 10:10 163 0 gusting 10 11.7
2014-Oct-23 10:05 173 1 gusting 7 11.7
2014-Oct-23 09:55 190 6 gusting 8 11.7
2014-Oct-23 09:50 159 3 gusting 7 11.7
2014-Oct-23 09:45 168 11.7
2014-Oct-23 09:40 158 11.7
2014-Oct-23 09:35 157 1 gusting 12 11.7
2014-Oct-23 09:30 202 6 gusting 12 11.7
2014-Oct-23 09:25 184 8 gusting 8 11.7
2014-Oct-23 09:20 245 1 gusting 9 11.7
2014-Oct-23 09:10 171 1 gusting 6 12.2
2014-Oct-23 09:00 231 3 gusting 6 12.2
2014-Oct-23 08:25 193 14 gusting 14 12.2
2014-Oct-23 08:20 194 5 gusting 14 12.2
2014-Oct-23 08:10 190 3 gusting 13 12.2
2014-Oct-23 08:00 196 10 gusting 14 12.2
2014-Oct-23 07:55 170 8 gusting 17 12.2
2014-Oct-23 07:40 207 3 gusting 16 12.2
2014-Oct-23 07:30 232 0 gusting 15 12.2
2014-Oct-23 07:20 126 2 gusting 15 12.8
2014-Oct-23 07:05 168 8 gusting 14 12.8
2014-Oct-23 07:00 105 2 gusting 13 12.8
2014-Oct-23 06:40 184 6 gusting 14 12.8
2014-Oct-23 06:15 152 11 gusting 14 12.8
2014-Oct-23 06:00 179 7 gusting 18 13.3
2014-Oct-23 05:40 136 15 gusting 21 12.8
2014-Oct-23 05:35 094 15 gusting 21 12.8
2014-Oct-23 05:30 101 7 gusting 16 12.8
2014-Oct-23 05:20 191 1 gusting 15 12.8
2014-Oct-23 05:15 179 6 gusting 19 12.8
2014-Oct-23 05:10 142 9 gusting 19 12.8
2014-Oct-23 05:05 134 5 gusting 14 12.8
2014-Oct-23 04:50 135 7 gusting 16 12.8
2014-Oct-23 04:45 119 6 gusting 18 12.8
2014-Oct-23 04:40 180 6 gusting 18 12.8
2014-Oct-23 04:35 203 3 gusting 19 12.8
2014-Oct-23 04:30 173 10 gusting 21 12.8
2014-Oct-23 04:25 165 3 gusting 21 12.8
2014-Oct-23 04:20 163 6 gusting 19 12.8
2014-Oct-23 04:15 187 5 gusting 24 12.8
2014-Oct-23 04:10 192 6 gusting 24 12.8
2014-Oct-23 04:05 178 1 gusting 26 13.3
2014-Oct-23 04:00 153 6 gusting 26 13.3
2014-Oct-23 03:55 194 8 gusting 19 13.3
2014-Oct-23 03:40 152 7 gusting 25 13.3
2014-Oct-23 03:35 195 10 gusting 25 13.3
2014-Oct-23 03:25 223 11 gusting 20 13.3
2014-Oct-23 03:20 205 6 gusting 20 13.3
2014-Oct-23 03:15 188 7 gusting 19 13.3
2014-Oct-23 03:10 172 3 gusting 18 13.3